Vertical_Velocity
3 2 -3 1 1 -1 0 1 3 2 2 1 0 -0 0 0 1 0 0 0 1 1 1 0 1 1 2 -1 0 -0 -1 1 1 -2 -1 -2 -2 0 -1 4 0 -4 0 -0 -1 -5 3
2 3 3 -1 1 2 1 -0 1 2 2 2 2 1 -0 -1 -1 -0 -0 -0 0 0 0 0 1 -0 -0 2 1 -1 -1 -1 -1 -3 -3 -2 -1 -1 0 1 -1 0 2 3 -0 -0 1
1 0 0 -3 3 2 1 0 1 3 2 -0 0 1 -1 -0 -1 -0 -1 -2 -2 -2 -2 -2 -1 -2 -2 -3 -1 -2 1 0 -2 -1 0 -3 -1 -1 2 2 -2 -1 8 6 0 -2 -2
16 2 3 -8 -2 1 4 1 0 1 4 3 1 -0 -0 -0 0 -2 -2 -3 -3 -3 -2 -1 -1 -1 -1 -1 -4 -2 -0 -3 -1 -1 0 0 -1 -4 -3 5 0 7 -2 11 -4 -1 -5
-0 -2 1 2 3 -2 2 2 2 1 3 2 0 -1 -2 -0 -1 -1 -1 -2 -1 -0 -2 -1 -3 -2 -1 -1 -5 -1 1 -3 -3 -3 -2 -1 -1 -4 -3 7 1 -2 -0 -0 11 -3 3
1 6 -2 5 -3 -4 2 0 1 0 0 2 1 0 -2 -2 -1 -0 -2 -1 -1 -1 -2 -1 -3 -3 -2 -2 -4 1 -1 -6 -2 -3 -1 -2 -4 -1 1 -2 -0 3 5 1 -2 9 0
0 1 5 -3 4 4 -0 0 2 2 -1 0 0 -1 0 -0 -0 -1 -1 -2 -2 -1 -2 -4 -2 -1 -2 -5 0 2 -4 -3 -1 -3 -3 0 -4 2 -3 1 -1 -1 -3 -2 1 -4 5
-2 0 4 2 -1 6 -4 2 2 4 4 -0 0 0 -1 0 -1 0 -2 -2 -2 1 -3 -0 -4 -2 -2 -3 -2 -3 -1 -2 -2 -3 -1 -5 1 2 0 -1 -3 1 1 -2 -3 -3 8
2 3 -1 -3 1 5 -1 5 -1 -2 6 3 1 0 0 1 -1 -0 -2 -1 -1 -1 -3 -0 -3 -5 -3 -3 -3 -3 -3 -3 -2 -0 -3 -4 -1 -2 1 0 -1 1 0 -3 2 2 0
-1 1 3 3 6 2 3 4 2 4 -0 2 -1 -1 2 3 -2 -1 -2 -2 -2 1 -4 2 -1 -4 -1 0 -4 -2 -2 -2 -2 -2 -1 -4 1 -3 -1 1 1 0 0 -1 -6 -0 1
6 6 5 3 5 -1 1 -1 -3 2 1 6 -4 0 3 1 -3 -3 -3 -2 -2 0 -9 -1 -0 0 -1 -1 -2 0 -2 -1 -0 1 -1 2 0 -0 -5 2 0 4 2 1 1 -2 2
4 2 3 3 3 -3 14 6 -6 -6 -7 2 -2 8 0 1 -4 -0 -1 -3 0 -1 -2 -5 -2 -2 -1 -2 1 -0 -2 2 -2 -1 -2 -5 9 1 -5 1 3 1 3 -0 1 -1 -2
-0 2 4 3 2 3 4 1 3 -6 2 -10 -2 -6 -4 -1 -1 -0 -1 -4 -3 -1 3 -4 -2 -2 -3 -2 -3 -0 0 -1 -2 -2 -3 1 3 1 -1 -6 1 -2 -3 -1 2 4 0
0 4 2 4 1 3 3 2 2 0 -2 2 -4 2 -4 -9 -2 -2 -1 -7 -0 -4 3 2 -3 -4 -3 -2 1 -8 6 3 -4 0 -1 2 4 -1 3 -4 0 -3 -1 -3 -9 -5 7
4 4 2 1 1 3 1 1 3 0 1 6 0 -1 -2 -3 -6 -2 -2 -3 -3 -1 1 2 -4 -4 2 -0 -2 -3 -2 2 -0 1 0 -3 1 2 -2 -2 -3 -2 -3 -5 -6 -2 -4
-9 24 -1 -0 1 0 -0 3 -1 3 3 1 2 1 -2 -1 -1 -3 -2 -1 -3 -3 -2 -2 -4 -2 -1 3 -2 -3 2 2 -2 4 1 0 -2 3 -2 -5 2 -3 4 -4 -11 -13 -16
25 4 -2 -0 -1 1 -2 -1 -0 4 -1 0 3 -3 3 -1 -0 -3 -1 -5 -3 0 0 -1 -5 -2 -6 -0 -1 -5 11 -2 -1 -0 -1 2 -1 -1 -1 7 -7 -4 0 -3 1 -2 -11
-0 -3 2 4 3 1 -3 3 3 2 -0 2 1 -8 0 -1 -5 1 5 -1 -4 4 5 -5 -6 -2 -3 -2 -2 -4 6 -6 -1 -2 2 1 5 -2 -2 -5 0 5 -6 -3 1 4 1
2 1 9 6 4 2 1 3 -1 0 -0 1 -5 1 -2 1 -10 2 2 -2 -9 1 9 -3 -6 -1 0 -2 -4 -1 2 -2 -2 3 -2 -0 5 2 2 -2 -6 5 -3 -5 -2 2 9
9 -6 -4 -3 -9 -0 1 0 -0 0 -1 -3 1 -2 -6 -1 3 2 -2 1 -4 1 5 -4 -1 -3 -5 0 -2 2 3 -4 4 -1 -2 -1 0 2 3 -3 5 -1 -6 -7 -6 -4 5
9 16 4 4 13 -2 -4 -4 -2 -0 -4 -2 -3 -7 6 -7 2 3 -4 -0 -1 -2 -2 -3 4 -3 -5 -5 5 -5 -1 2 1 -5 1 -1 -1 1 4 3 -1 -2 -3 3 5 2 -2
7 -6 1 -7 -8 -0 -7 -6 3 4 -4 -3 1 -1 11 2 1 3 -0 -2 3 -1 5 -1 3 -9 -5 6 -0 -3 -4 1 4 -0 -1 -1 -5 -2 6 -3 -4 2 -5 3 -3 2 1
3 6 -2 4 -5 -1 2 -3 -1 1 -6 -3 -10 -1 7 6 3 -5 3 0 -2 4 -1 3 -5 3 6 -5 0 -5 -1 -2 7 -1 2 -0 -1 -2 4 2 -0 -2 5 1 -4 1 4
8 2 9 3 8 -1 2 -3 8 -1 2 4 2 3 8 2 6 4 -10 -1 -5 10 3 3 -4 7 1 -2 -0 -4 -3 -1 -0 -0 4 4 1 1 -4 3 2 -3 6 2 -5 5 3
-0 2 5 2 3 4 4 -3 1 0 5 8 5 -7 -2 0 3 -7 -4 -3 -1 2 13 2 -2 -2 -8 -0 -4 -3 3 -0 1 -3 -0 0 1 -7 -4 -1 3 -6 -2 -10 -12 5 3
1 -3 3 3 -8 -1 -1 8 3 -0 -1 -3 -1 1 1 3 -3 0 -4 -1 2 3 -1 3 -8 -2 -5 2 0 1 -6 3 -4 -1 1 -2 0 0 -5 -5 -7 4 10 -1 -5 -0 1
-2 -6 -3 -7 1 -1 -2 -0 2 1 0 -4 -2 1 -1 9 -4 2 2 -1 -1 2 3 -3 -5 -1 -3 7 -3 -1 3 0 -7 1 1 2 -2 3 -8 -15 6 -1 -1 -3 2 -0 -2
-2 -0 -1 -3 -4 -11 -9 -6 -9 -4 -2 -5 -0 -1 -1 6 -3 -4 -2 1 1 -1 3 11 -7 -1 2 3 -0 2 -3 -0 1 -6 -2 4 -7 8 -0 -9 5 3 3 -2 2 -2 -4
8 4 1 3 -7 -4 -4 -10 -4 -3 2 -3 1 -1 1 -1 8 -0 -1 -0 0 -4 6 -1 5 -2 -2 -1 1 -3 2 2 3 -2 -3 -6 2 -7 -3 6 -1 3 -4 1 1 -0 -0
Height
5770 5780 5792 5802 5812 5821 5829 5836 5843 5849 5855 5860 5864 5868 5873 5876 5879 5882 5885 5888 5892 5894 5896 5899 5901 5904 5907 5907 5909 5909 5909 5910 5910 5909 5909 5908 5908 5907 5904 5902 5900 5896 5896 5894 5892 5887 5885
5760 5772 5784 5794 5805 5814 5823 5831 5838 5844 5850 5855 5860 5864 5868 5872 5875 5879 5882 5885 5888 5890 5893 5895 5897 5899 5901 5904 5904 5904 5904 5905 5905 5904 5903 5902 5903 5901 5899 5896 5895 5893 5891 5890 5885 5882 5878
5751 5763 5775 5787 5798 5807 5816 5825 5832 5839 5845 5849 5854 5859 5863 5867 5871 5874 5878 5881 5884 5886 5889 5891 5893 5894 5895 5898 5899 5898 5899 5899 5898 5898 5898 5895 5895 5893 5892 5890 5889 5886 5887 5883 5878 5874 5870
5741 5754 5767 5780 5792 5800 5810 5819 5827 5834 5840 5845 5850 5854 5859 5862 5866 5870 5873 5876 5880 5882 5885 5887 5888 5890 5890 5893 5891 5892 5893 5892 5891 5892 5892 5889 5889 5886 5882 5884 5882 5880 5876 5875 5870 5867 5866
5732 5745 5758 5772 5784 5794 5804 5812 5821 5829 5836 5841 5845 5849 5854 5858 5862 5866 5870 5873 5876 5878 5880 5882 5883 5884 5886 5887 5884 5885 5889 5885 5884 5884 5884 5882 5882 5878 5876 5877 5874 5869 5868 5867 5869 5862 5859
5724 5738 5749 5764 5777 5788 5798 5806 5814 5822 5830 5836 5841 5845 5849 5854 5858 5862 5865 5868 5870 5873 5875 5876 5877 5879 5881 5881 5879 5880 5882 5876 5879 5876 5875 5875 5873 5872 5871 5868 5866 5865 5864 5863 5858 5859 5854
5715 5731 5743 5756 5769 5780 5791 5801 5809 5817 5823 5830 5836 5840 5845 5849 5853 5857 5860 5863 5867 5869 5868 5870 5872 5873 5875 5874 5875 5876 5873 5872 5873 5871 5869 5868 5866 5867 5864 5862 5860 5857 5857 5856 5853 5851 5849
5709 5724 5737 5748 5762 5775 5785 5795 5803 5811 5818 5824 5830 5835 5839 5844 5847 5851 5854 5857 5860 5863 5863 5866 5866 5867 5869 5869 5870 5870 5870 5869 5867 5866 5864 5861 5862 5861 5858 5857 5854 5853 5851 5849 5848 5846 5843
5703 5718 5732 5745 5756 5767 5779 5787 5796 5803 5811 5818 5823 5828 5834 5839 5842 5846 5849 5853 5855 5857 5860 5862 5861 5861 5864 5865 5863 5865 5865 5863 5862 5860 5857 5854 5855 5853 5852 5850 5850 5848 5846 5844 5845 5842 5839
5699 5713 5726 5739 5748 5760 5772 5781 5789 5797 5804 5812 5817 5823 5828 5833 5838 5841 5844 5848 5850 5853 5855 5858 5857 5857 5858 5859 5858 5858 5858 5858 5856 5854 5852 5850 5850 5848 5845 5845 5844 5843 5841 5840 5839 5838 5835
5695 5708 5720 5732 5744 5754 5764 5774 5781 5792 5799 5806 5811 5816 5822 5827 5831 5835 5840 5843 5846 5848 5848 5852 5852 5852 5853 5854 5853 5852 5852 5851 5850 5849 5848 5846 5844 5843 5839 5840 5839 5839 5838 5836 5834 5832 5830
5689 5703 5715 5727 5737 5746 5756 5767 5777 5784 5791 5797 5804 5808 5816 5821 5825 5829 5833 5837 5840 5843 5842 5846 5846 5847 5848 5847 5848 5847 5846 5847 5845 5844 5843 5839 5840 5839 5836 5835 5835 5835 5834 5832 5829 5825 5823
5684 5697 5710 5721 5731 5742 5752 5761 5769 5777 5784 5792 5800 5804 5809 5814 5820 5824 5828 5831 5835 5835 5838 5839 5840 5841 5842 5842 5841 5841 5841 5841 5840 5839 5837 5836 5835 5835 5833 5831 5830 5829 5827 5825 5824 5821 5817
5679 5693 5704 5715 5725 5735 5746 5754 5762 5769 5779 5786 5793 5798 5804 5811 5814 5818 5823 5827 5828 5830 5832 5833 5833 5834 5836 5836 5837 5835 5836 5836 5834 5833 5831 5831 5831 5828 5829 5826 5825 5823 5821 5818 5815 5814 5811
5673 5687 5698 5709 5719 5729 5739 5748 5756 5764 5772 5780 5787 5792 5798 5804 5809 5813 5817 5821 5822 5824 5826 5827 5827 5827 5829 5830 5831 5831 5829 5830 5829 5828 5827 5825 5824 5823 5822 5820 5820 5817 5814 5812 5808 5807 5805
5671 5682 5691 5703 5713 5723 5732 5740 5749 5759 5766 5773 5779 5785 5791 5796 5801 5805 5811 5814 5815 5818 5819 5821 5821 5822 5821 5823 5825 5824 5822 5825 5823 5822 5822 5822 5819 5819 5816 5814 5812 5810 5808 5805 5801 5798 5795
5661 5676 5687 5697 5707 5716 5725 5733 5742 5750 5758 5765 5772 5778 5784 5789 5793 5798 5803 5806 5809 5811 5813 5814 5815 5815 5815 5816 5818 5817 5819 5819 5818 5816 5816 5815 5815 5814 5810 5808 5805 5802 5800 5798 5793 5788 5782
5660 5670 5681 5691 5700 5709 5718 5727 5734 5742 5750 5758 5764 5771 5776 5781 5786 5790 5795 5797 5801 5804 5807 5808 5808 5809 5810 5810 5811 5809 5812 5813 5811 5812 5810 5810 5808 5807 5804 5801 5797 5794 5792 5789 5785 5778 5769
5657 5666 5674 5683 5692 5702 5711 5718 5726 5734 5742 5749 5755 5762 5767 5772 5777 5782 5785 5788 5792 5797 5799 5803 5802 5804 5805 5804 5805 5804 5804 5806 5807 5805 5804 5803 5801 5799 5797 5796 5791 5788 5783 5779 5775 5769 5764
5651 5660 5669 5678 5685 5694 5701 5709 5717 5724 5732 5740 5748 5754 5759 5764 5770 5774 5776 5781 5785 5789 5791 5794 5795 5796 5797 5797 5798 5798 5800 5800 5799 5797 5797 5795 5794 5792 5790 5786 5783 5780 5774 5769 5765 5762 5757
5644 5654 5661 5668 5675 5684 5692 5700 5708 5715 5722 5731 5738 5745 5752 5756 5760 5764 5768 5773 5777 5781 5784 5786 5788 5789 5790 5789 5791 5793 5794 5792 5791 5791 5790 5788 5786 5785 5781 5777 5775 5770 5767 5762 5758 5753 5747
5636 5646 5653 5662 5671 5678 5685 5692 5696 5704 5712 5720 5729 5736 5743 5748 5751 5755 5761 5766 5769 5774 5776 5778 5780 5781 5782 5784 5785 5785 5784 5784 5784 5784 5783 5781 5779 5777 5773 5769 5766 5763 5759 5754 5749 5742 5734
5634 5644 5649 5654 5662 5671 5677 5684 5689 5696 5704 5711 5719 5727 5732 5739 5743 5747 5754 5758 5761 5764 5767 5768 5770 5772 5775 5776 5776 5776 5776 5776 5776 5776 5774 5774 5772 5769 5767 5762 5759 5756 5750 5744 5738 5733 5727
5630 5637 5643 5649 5655 5664 5671 5679 5683 5689 5696 5703 5710 5716 5722 5729 5734 5739 5743 5749 5751 5756 5757 5759 5761 5764 5766 5766 5766 5767 5768 5768 5767 5767 5766 5764 5762 5759 5757 5753 5750 5745 5741 5734 5730 5725 5716
5626 5634 5638 5644 5651 5657 5665 5673 5677 5682 5689 5696 5700 5707 5713 5718 5724 5729 5735 5739 5743 5746 5749 5750 5752 5754 5755 5758 5759 5759 5759 5759 5759 5758 5757 5755 5752 5749 5747 5745 5742 5736 5730 5725 5720 5718 5709
5617 5625 5631 5640 5644 5653 5659 5666 5671 5675 5682 5689 5694 5699 5705 5710 5714 5722 5726 5731 5734 5738 5740 5741 5743 5745 5747 5748 5749 5749 5750 5750 5750 5750 5749 5746 5743 5741 5738 5736 5733 5731 5723 5717 5710 5708 5702
5610 5619 5627 5636 5640 5649 5654 5657 5664 5672 5676 5682 5687 5691 5696 5701 5706 5712 5717 5721 5725 5727 5729 5729 5732 5735 5737 5738 5739 5740 5741 5740 5741 5742 5741 5738 5736 5733 5730 5729 5727 5722 5717 5712 5708 5703 5693
5605 5610 5617 5624 5632 5640 5647 5652 5658 5665 5669 5673 5678 5682 5688 5692 5696 5701 5705 5709 5713 5716 5718 5720 5722 5723 5725 5727 5728 5732 5731 5731 5732 5732 5730 5729 5726 5724 5722 5719 5717 5714 5709 5704 5699 5692 5685
5601 5606 5612 5616 5623 5628 5634 5642 5648 5655 5660 5664 5670 5675 5679 5683 5689 5690 5694 5697 5701 5707 5709 5707 5712 5714 5716 5718 5720 5720 5722 5723 5723 5722 5721 5720 5717 5715 5714 5711 5707 5702 5698 5696 5690 5685 5678